THY8RW LTFM-LTAN

Flight info

Callsign THY8RW
Flight time 0h 53m
Altitude 37000
Route RATVU UT35 DOKUB UT76 KFK UB545 HISAR
Aircraft A319/M-SDE3FGHIRWY/LB1

Departure

Time 2026-04-25 23:10
Airport İstanbul Airport (LTFM)

Arrival

Time 2026-04-26 00:04
Airport Konya Airport (LTAN)
Time Latitude Longitude Altitude Speed Heading
2026-04-25 22:37 41.26176 28.74881 314 ft 0 kts 251°
2026-04-25 23:03 41.26178 28.74887 313 ft 3 kts 252°
2026-04-25 23:03 41.26184 28.74919 313 ft 4 kts 263°
2026-04-25 23:03 41.26185 28.74953 313 ft 4 kts 279°
2026-04-25 23:03 41.26177 28.74983 313 ft 4 kts 323°
2026-04-25 23:04 41.26170 28.74989 313 ft 0 kts 341°
2026-04-25 23:06 41.26177 28.74986 313 ft 2 kts 342°
2026-04-25 23:07 41.26196 28.74983 313 ft 4 kts 358°
2026-04-25 23:07 41.26225 28.74996 313 ft 5 kts 33°
2026-04-25 23:07 41.26239 28.75046 313 ft 7 kts 89°
2026-04-25 23:07 41.26239 28.75116 313 ft 9 kts 90°
2026-04-25 23:08 41.26239 28.75204 314 ft 10 kts 90°
2026-04-25 23:08 41.26240 28.75303 314 ft 12 kts 90°
2026-04-25 23:08 41.26242 28.75419 314 ft 13 kts 88°
2026-04-25 23:08 41.26244 28.75513 314 ft 8 kts 89°
2026-04-25 23:09 41.26244 28.75570 314 ft 7 kts 89°
2026-04-25 23:09 41.26246 28.75636 316 ft 7 kts 80°
2026-04-25 23:09 41.26292 28.75668 314 ft 5 kts 359°
2026-04-25 23:09 41.26299 28.75668 314 ft 4 kts 359°
2026-04-25 23:10 41.26476 28.75663 311 ft 59 kts 359°
2026-04-25 23:10 41.27116 28.75654 301 ft 122 kts 359°
2026-04-25 23:10 41.28129 28.75636 421 ft 158 kts 359°
2026-04-25 23:10 41.29219 28.75624 1077 ft 156 kts 358°
2026-04-25 23:11 41.30312 28.75869 1570 ft 168 kts 20°
2026-04-25 23:11 41.31381 28.76686 1925 ft 186 kts 32°
2026-04-25 23:11 41.32527 28.77699 2226 ft 211 kts 33°
2026-04-25 23:11 41.33823 28.78826 2667 ft 235 kts 33°
2026-04-25 23:12 41.35278 28.80047 3220 ft 259 kts 32°
2026-04-25 23:12 41.36841 28.81344 4115 ft 269 kts 36°
2026-04-25 23:12 41.38049 28.83231 5116 ft 272 kts 66°
2026-04-25 23:12 41.38404 28.85621 6083 ft 275 kts 89°
2026-04-25 23:13 41.38426 28.88098 7072 ft 277 kts 90°
2026-04-25 23:13 41.38291 28.90626 7994 ft 282 kts 105°
2026-04-25 23:13 41.37386 28.92889 8846 ft 288 kts 132°
2026-04-25 23:13 41.35754 28.94396 9663 ft 296 kts 160°
2026-04-25 23:14 41.33702 28.94802 10356 ft 307 kts 179°
2026-04-25 23:14 41.31485 28.94852 10711 ft 329 kts 180°
2026-04-25 23:14 41.29169 28.94869 11395 ft 336 kts 181°
2026-04-25 23:14 41.26839 28.94882 12210 ft 338 kts 181°
2026-04-25 23:15 41.24465 28.94871 13048 ft 340 kts 182°
2026-04-25 23:15 41.22212 28.94734 13761 ft 343 kts 185°
2026-04-25 23:15 41.19880 28.94510 14465 ft 347 kts 186°
2026-04-25 23:15 41.17458 28.94244 15168 ft 351 kts 186°
2026-04-25 23:16 41.15008 28.93971 15852 ft 355 kts 185°
2026-04-25 23:16 41.12533 28.93707 16511 ft 359 kts 185°
2026-04-25 23:16 41.10025 28.93452 17158 ft 363 kts 185°
2026-04-25 23:16 41.07494 28.93206 17807 ft 367 kts 185°
2026-04-25 23:17 41.04940 28.92966 18430 ft 370 kts 184°
2026-04-25 23:17 41.02356 28.92729 19036 ft 374 kts 184°
2026-04-25 23:17 40.99741 28.92472 19649 ft 378 kts 185°
2026-04-25 23:17 40.97123 28.92166 20248 ft 382 kts 186°
2026-04-25 23:18 40.94451 28.91822 20835 ft 385 kts 186°
2026-04-25 23:18 40.91777 28.91463 21402 ft 389 kts 186°
2026-04-25 23:18 40.89072 28.91097 21954 ft 392 kts 186°
2026-04-25 23:18 40.86338 28.90952 22479 ft 395 kts 177°
2026-04-25 23:19 40.83581 28.91161 23005 ft 399 kts 176°
2026-04-25 23:19 40.80798 28.91392 23514 ft 402 kts 176°
2026-04-25 23:19 40.78117 28.91621 23995 ft 405 kts 176°
2026-04-25 23:19 40.75188 28.91865 24498 ft 408 kts 176°
2026-04-25 23:20 40.72324 28.92102 24970 ft 411 kts 176°
2026-04-25 23:20 40.69460 28.92331 25454 ft 413 kts 176°
2026-04-25 23:20 40.66579 28.92559 25911 ft 416 kts 176°
2026-04-25 23:20 40.63686 28.92792 26341 ft 419 kts 176°
2026-04-25 23:21 40.60759 28.93028 26765 ft 421 kts 176°
2026-04-25 23:21 40.57838 28.93408 27178 ft 424 kts 169°
2026-04-25 23:21 40.54983 28.94396 27597 ft 426 kts 159°
2026-04-25 23:21 40.52284 28.96020 27999 ft 428 kts 149°
2026-04-25 23:22 40.49769 28.98131 28406 ft 430 kts 146°
2026-04-25 23:22 40.47253 29.00290 28804 ft 433 kts 146°
2026-04-25 23:22 40.44720 29.02446 29185 ft 435 kts 146°
2026-04-25 23:23 40.39616 29.06770 29915 ft 440 kts 146°
2026-04-25 23:23 40.37038 29.08956 30278 ft 442 kts 146°
2026-04-25 23:23 40.34447 29.11155 30638 ft 444 kts 147°
2026-04-25 23:23 40.31847 29.13364 30992 ft 446 kts 147°
2026-04-25 23:24 40.29234 29.15585 31323 ft 449 kts 146°
2026-04-25 23:24 40.26609 29.17813 31646 ft 451 kts 147°
2026-04-25 23:24 40.23976 29.20039 32040 ft 451 kts 147°
2026-04-25 23:24 40.21347 29.22254 32491 ft 449 kts 147°
2026-04-25 23:25 40.18662 29.24344 32925 ft 449 kts 153°
2026-04-25 23:25 40.16734 29.25463 33213 ft 448 kts 159°
2026-04-25 23:25 40.13811 29.26852 33643 ft 446 kts 160°
2026-04-25 23:25 40.10894 29.28234 34037 ft 446 kts 160°
2026-04-25 23:26 40.07982 29.29620 34457 ft 445 kts 160°
2026-04-25 23:26 40.05070 29.31005 34852 ft 445 kts 160°
2026-04-25 23:26 40.02164 29.32386 35239 ft 444 kts 160°
2026-04-25 23:26 39.99268 29.33762 35605 ft 443 kts 160°
2026-04-25 23:27 39.96372 29.35140 35992 ft 443 kts 160°
2026-04-25 23:27 39.93478 29.36512 36293 ft 442 kts 160°
2026-04-25 23:27 39.90597 29.37877 36533 ft 440 kts 160°
2026-04-25 23:27 39.87734 29.39316 36790 ft 440 kts 158°
2026-04-25 23:28 39.84908 29.40842 36983 ft 439 kts 157°
2026-04-25 23:28 39.79458 29.43933 37027 ft 434 kts 156°
2026-04-25 23:29 39.73938 29.47052 37026 ft 431 kts 157°
2026-04-25 23:29 39.68418 29.50095 37025 ft 430 kts 158°
2026-04-25 23:30 39.62889 29.53089 37025 ft 430 kts 158°
2026-04-25 23:30 39.57310 29.55912 37019 ft 430 kts 160°
2026-04-25 23:31 39.51675 29.58660 37017 ft 429 kts 160°
2026-04-25 23:31 39.46087 29.61408 37019 ft 429 kts 159°
2026-04-25 23:32 39.40517 29.64179 37021 ft 429 kts 159°
2026-04-25 23:32 39.34943 29.66956 37022 ft 429 kts 159°
2026-04-25 23:33 39.29371 29.69720 37023 ft 429 kts 159°
2026-04-25 23:33 39.23799 29.72489 37031 ft 429 kts 159°
2026-04-25 23:34 39.18235 29.75242 37038 ft 428 kts 160°
2026-04-25 23:34 39.12671 29.77983 37042 ft 427 kts 160°
2026-04-25 23:35 39.07116 29.80726 37039 ft 428 kts 159°
2026-04-25 23:35 39.01557 29.83458 37051 ft 427 kts 160°
2026-04-25 23:36 38.96019 29.86215 37055 ft 427 kts 155°
2026-04-25 23:36 38.93475 29.88130 37054 ft 428 kts 144°
2026-04-25 23:36 38.91259 29.90701 37057 ft 428 kts 132°
2026-04-25 23:36 38.89504 29.93796 37057 ft 429 kts 120°
2026-04-25 23:37 38.88271 29.97279 37052 ft 430 kts 109°
2026-04-25 23:37 38.87099 30.04798 37043 ft 431 kts 101°
2026-04-25 23:38 38.86101 30.12392 37037 ft 432 kts 101°
2026-04-25 23:38 38.85082 30.19994 37032 ft 433 kts 101°
2026-04-25 23:39 38.84059 30.27613 37033 ft 433 kts 101°
2026-04-25 23:39 38.83027 30.35284 37035 ft 434 kts 101°
2026-04-25 23:40 38.82002 30.42911 37043 ft 434 kts 101°
2026-04-25 23:40 38.80874 30.50518 37030 ft 433 kts 108°
2026-04-25 23:41 38.78357 30.57446 37040 ft 428 kts 126°
2026-04-25 23:41 38.74557 30.63284 37044 ft 427 kts 133°
2026-04-25 23:42 38.70648 30.69015 37042 ft 427 kts 133°
2026-04-25 23:42 38.66743 30.74753 37048 ft 428 kts 133°
2026-04-25 23:43 38.62840 30.80486 37045 ft 427 kts 133°
2026-04-25 23:43 38.58914 30.86211 36780 ft 428 kts 133°
2026-04-25 23:43 38.56952 30.89072 36531 ft 428 kts 133°
2026-04-25 23:44 38.54995 30.91930 36282 ft 428 kts 133°
2026-04-25 23:44 38.53027 30.94802 36034 ft 429 kts 133°
2026-04-25 23:44 38.51055 30.97675 35791 ft 431 kts 133°
2026-04-25 23:44 38.49076 31.00555 35539 ft 432 kts 133°
2026-04-25 23:45 38.47103 31.03418 35125 ft 429 kts 133°
2026-04-25 23:45 38.45126 31.06267 34635 ft 428 kts 133°
2026-04-25 23:45 38.43148 31.09101 34122 ft 427 kts 133°
2026-04-25 23:45 38.41175 31.11926 33610 ft 425 kts 133°
2026-04-25 23:46 38.39214 31.14735 33074 ft 424 kts 133°
2026-04-25 23:46 38.37261 31.17527 32542 ft 422 kts 133°
2026-04-25 23:46 38.35312 31.20314 31980 ft 421 kts 133°
2026-04-25 23:46 38.33370 31.23096 31439 ft 419 kts 133°
2026-04-25 23:47 38.31430 31.25865 30900 ft 417 kts 133°
2026-04-25 23:47 38.29498 31.28619 30363 ft 415 kts 133°
2026-04-25 23:47 38.27573 31.31361 29821 ft 414 kts 133°
2026-04-25 23:47 38.25635 31.34119 29278 ft 412 kts 133°
2026-04-25 23:48 38.23826 31.36690 28767 ft 410 kts 133°
2026-04-25 23:48 38.21981 31.39311 28253 ft 408 kts 133°
2026-04-25 23:48 38.20093 31.41994 27711 ft 405 kts 133°
2026-04-25 23:48 38.18218 31.44658 27196 ft 403 kts 133°
2026-04-25 23:49 38.16356 31.47298 26671 ft 401 kts 133°
2026-04-25 23:49 38.14502 31.49932 26160 ft 399 kts 132°
2026-04-25 23:49 38.12897 31.52796 25661 ft 398 kts 121°
2026-04-25 23:49 38.11714 31.55963 25175 ft 397 kts 111°
2026-04-25 23:50 38.10974 31.59340 24687 ft 397 kts 101°
2026-04-25 23:50 38.10573 31.62806 24216 ft 395 kts 99°
2026-04-25 23:50 38.10192 31.66250 23757 ft 393 kts 99°
2026-04-25 23:50 38.09808 31.69673 23301 ft 390 kts 99°
2026-04-25 23:51 38.09425 31.73064 22857 ft 387 kts 99°
2026-04-25 23:51 38.09045 31.76432 22408 ft 384 kts 99°
2026-04-25 23:51 38.08669 31.79778 21955 ft 380 kts 99°
2026-04-25 23:51 38.08296 31.83082 21507 ft 376 kts 99°
2026-04-25 23:52 38.07921 31.86350 21044 ft 373 kts 99°
2026-04-25 23:52 38.07547 31.89596 20588 ft 369 kts 99°
2026-04-25 23:52 38.07180 31.92809 20042 ft 368 kts 99°
2026-04-25 23:52 38.06814 31.96023 19557 ft 366 kts 99°
2026-04-25 23:53 38.06449 31.99197 19043 ft 364 kts 99°
2026-04-25 23:53 38.06098 32.02218 18833 ft 354 kts 99°
2026-04-25 23:53 38.05749 32.05224 18704 ft 341 kts 99°
2026-04-25 23:53 38.05410 32.08156 18464 ft 334 kts 99°
2026-04-25 23:54 38.04885 32.11011 18104 ft 330 kts 110°
2026-04-25 23:54 38.03931 32.13627 17734 ft 326 kts 122°
2026-04-25 23:54 38.02602 32.15932 17337 ft 322 kts 133°
2026-04-25 23:54 38.00976 32.17835 16726 ft 317 kts 144°
2026-04-25 23:55 37.99155 32.19399 16077 ft 314 kts 147°
2026-04-25 23:55 37.97340 32.20932 15447 ft 312 kts 147°
2026-04-25 23:55 37.95542 32.22455 14833 ft 310 kts 147°
2026-04-25 23:55 37.93762 32.23968 14218 ft 307 kts 147°
2026-04-25 23:56 37.91969 32.25501 13623 ft 305 kts 147°
2026-04-25 23:56 37.90244 32.26976 13024 ft 303 kts 147°
2026-04-25 23:56 37.88478 32.28472 12425 ft 300 kts 147°
2026-04-25 23:56 37.87389 32.29393 12048 ft 298 kts 147°
2026-04-25 23:57 37.85673 32.30842 11449 ft 296 kts 147°
2026-04-25 23:57 37.84015 32.32241 10885 ft 294 kts 147°
2026-04-25 23:57 37.82372 32.33631 10305 ft 291 kts 147°
2026-04-25 23:57 37.80695 32.35046 9725 ft 289 kts 147°
2026-04-25 23:58 37.79025 32.36452 9180 ft 288 kts 147°
2026-04-25 23:58 37.77365 32.37855 8825 ft 286 kts 146°
2026-04-25 23:58 37.75913 32.39432 8359 ft 282 kts 127°
2026-04-25 23:58 37.75077 32.41670 7761 ft 280 kts 102°
2026-04-25 23:59 37.75062 32.44058 7183 ft 278 kts 77°
2026-04-25 23:59 37.75832 32.46265 6619 ft 276 kts 53°
2026-04-25 23:59 37.77237 32.47870 6072 ft 273 kts 30°
2026-04-25 23:59 37.78981 32.48770 5753 ft 271 kts 16°
2026-04-26 00:00 37.80785 32.49452 5699 ft 260 kts 17°
2026-04-26 00:00 37.82466 32.50101 5702 ft 246 kts 17°
2026-04-26 00:00 37.84046 32.50699 5703 ft 228 kts 17°
2026-04-26 00:00 37.85518 32.51254 5571 ft 213 kts 17°
2026-04-26 00:01 37.86883 32.51770 5355 ft 197 kts 17°
2026-04-26 00:01 37.88152 32.52249 5087 ft 183 kts 17°
2026-04-26 00:01 37.89287 32.52679 4864 ft 158 kts 17°
2026-04-26 00:01 37.90285 32.53058 4663 ft 143 kts 16°
2026-04-26 00:02 37.91211 32.53412 4487 ft 136 kts 16°
2026-04-26 00:02 37.92106 32.53754 4273 ft 133 kts 16°
2026-04-26 00:02 37.92991 32.54085 4097 ft 132 kts 15°
2026-04-26 00:02 37.93866 32.54410 3936 ft 132 kts 16°
2026-04-26 00:03 37.94742 32.54748 3760 ft 132 kts 17°
2026-04-26 00:03 37.95618 32.55084 3602 ft 131 kts 16°
2026-04-26 00:03 37.96493 32.55417 3431 ft 131 kts 16°
2026-04-26 00:03 37.97297 32.55719 3391 ft 103 kts 16°
2026-04-26 00:04 37.97823 32.55913 3393 ft 56 kts 18°
2026-04-26 00:04 37.98141 32.56038 3392 ft 38 kts 17°
2026-04-26 00:04 37.98353 32.56117 3390 ft 27 kts 17°
2026-04-26 00:04 37.98533 32.56185 3389 ft 26 kts 17°
2026-04-26 00:05 37.98668 32.56236 3389 ft 10 kts 20°
2026-04-26 00:05 37.98704 32.56302 3389 ft 10 kts 98°
2026-04-26 00:05 37.98683 32.56384 3390 ft 10 kts 108°
2026-04-26 00:05 37.98662 32.56473 3391 ft 11 kts 107°
2026-04-26 00:06 37.98639 32.56565 3392 ft 11 kts 106°
2026-04-26 00:06 37.98645 32.56649 3392 ft 10 kts 53°
2026-04-26 00:06 37.98716 32.56691 3392 ft 12 kts 16°
2026-04-26 00:06 37.98781 32.56715 3392 ft 14 kts 16°
2026-04-26 00:07 37.98877 32.56749 3392 ft 15 kts 15°
2026-04-26 00:07 37.98985 32.56788 3391 ft 17 kts 16°
2026-04-26 00:07 37.99098 32.56830 3391 ft 16 kts 15°
2026-04-26 00:07 37.99200 32.56866 3391 ft 13 kts 16°
2026-04-26 00:08 37.99266 32.56890 3391 ft 8 kts 18°
2026-04-26 00:08 37.99283 32.56955 3391 ft 10 kts 106°
2026-04-26 00:08 37.99260 32.57039 3391 ft 11 kts 113°
2026-04-26 00:08 37.99217 32.57120 3391 ft 11 kts 129°
2026-04-26 00:09 37.99175 32.57185 3391 ft 9 kts 129°
2026-04-26 00:09 37.99133 32.57247 3391 ft 10 kts 131°
2026-04-26 00:09 37.99078 32.57328 3391 ft 14 kts 130°
2026-04-26 00:09 37.99015 32.57424 3391 ft 14 kts 129°
2026-04-26 00:10 37.98955 32.57515 3392 ft 13 kts 130°
2026-04-26 00:10 37.98885 32.57587 3391 ft 13 kts 156°
2026-04-26 00:10 37.98793 32.57576 3391 ft 13 kts 193°
2026-04-26 00:10 37.98703 32.57549 3391 ft 13 kts 194°
2026-04-26 00:11 37.98614 32.57517 3391 ft 13 kts 195°
2026-04-26 00:11 37.98536 32.57491 3391 ft 8 kts 192°
2026-04-26 00:11 37.98508 32.57526 3392 ft 4 kts 108°
2026-04-26 00:11 37.98506 32.57540 3391 ft 0 kts 105°
2026-04-26 00:19 37.98505 32.57540 3391 ft 0 kts 105°